TOKI (42820 NORAD) Tracking and Keplerian Element Data

This shows tracking and keplerian element data for the satellite.

Feedback or suggestion? Click here.




ElementValue
Catalog42820
NameTOKI
Epoch Orbit10444
Epoch Day123.1062665
Epoch Year2019
RAAN142.7539
Inclination51.6051
Eccentricity0.0005305
Argument of Perigee301.2009
Mean Anonmoly59.2873
Mean Motion16.47402492
Decay Rate0.20777511
L11 42820U 98067MU 19123.10626650 .20777511 12651-4 37226-3 0 9990
L22 42820 51.6051 142.7539 0005305 301.2009 59.2873 16.47402492104441

Live tracking and technical data element details for TOKI (NORAD 42820). TOKI can be tracked NOW for your location showing map with azimuth and elevation plus other details from your city location.

Track the satellite on the map from your city or location and see movement details for azimuth, elevation, latitude, longitude, range, height, and movement on the map or in text.







IsCatalogInMostPopularTable: catalog: 42820, numindb: 386
Update: records affected: 1



GetName: 42820 TOKI

Hit Count: updated at: Tue, 20 Oct 2020 17:00:40 GMT